Regional Weather Roundup
Issued by NWS

Home | Current Version | Previous Version | Graphics & Text | Print | Product List | Glossary Off
Versions: 1 2 3 4 5 6 7 8 9 10 11 12 13 14 15 16 17 18 19 20 21 22 23 24 25 26 27 28 29 30 31 32 33 34 35 36 37 38 39 40 41 42 43 44 45 46 47 48 49 50

000
ASUS43 KLSX 152357
RWRMO

WEATHER SUMMARY FOR MISSOURI
NATIONAL WEATHER SERVICE SPRINGFIELD MO
700 PM CDT TUE AUG 15 2017

NOTE: "FAIR" INDICATES FEW OR NO CLOUDS BELOW 12,000 FEET WITH NO
       SIGNIFICANT WEATHER AND/OR OBSTRUCTIONS TO VISIBILITY.
       CURRENT SKY AND/OR WEATHER CONDITIONS ARE NOT AVAILABLE FOR
       CHILLICOTHE AND FARMINGTON.

MOZ001>031-035>038-043-044-053-054-160100-
...NORTHERN AND WESTERN MISSOURI...

CITY           SKY/WX    TMP DP  RH WIND       PRES   REMARKS
KANSAS CTY INT PTSUNNY   83  71  67 SE9       29.84R
6HR MIN TEMP:  83; 6HR MAX TEMP:  87;

LEE`S SUMMIT   SUNNY     84  72  67 SE9       29.85R
6HR MIN TEMP:  82; 6HR MAX TEMP:  86;

ST JOSEPH      SUNNY     84  71  65 SE9       29.82R
6HR MIN TEMP:  84; 6HR MAX TEMP:  89;

CHILLICOTHE      N/A     85  71  63 VRB6      29.85S HX  90
6HR MIN TEMP:  85; 6HR MAX TEMP:  91;


$$
MOZ066>068-077>081-088>096-101>105-160100-
...SOUTHWEST MISSOURI...

CITY           SKY/WX    TMP DP  RH WIND       PRES   REMARKS
SPRINGFIELD    CLOUDY    82  73  74 SE6       29.86F
6HR MIN TEMP:  80; 6HR MAX TEMP:  87;

JOPLIN         CLOUDY    84  74  71 E7        29.83S HX  91
6HR MIN TEMP:  84; 6HR MAX TEMP:  91;

BRANSON        PTSUNNY   82  73  74 SE7       29.88S

$$
MOZ032>034-039>042-045>050-055>058-069>072-160100-
...CENTRAL MISSOURI...

CITY           SKY/WX    TMP DP  RH WIND       PRES   REMARKS
COLUMBIA       NOT AVBL
JEFFERSON CITY SUNNY     86  73  65 E5        29.84R HX  93
6HR MIN TEMP:  84; 6HR MAX TEMP:  88;

ROLLA          MOSUNNY   83  73  72 E3        29.89R
6HR MIN TEMP:  83; 6HR MAX TEMP:  87;

SEDALIA        SUNNY     84  74  71 E5        29.87R HX  91
6HR MIN TEMP:  84; 6HR MAX TEMP:  89;

WARRENSBURG    SUNNY     82  70  65 SE7       29.85S

$$
MOZ051-052-059>065-160100-
...EAST CENTRAL MISSOURI...

CITY           SKY/WX    TMP DP  RH WIND       PRES   REMARKS
ST LOUIS INTL  MOCLDY    87  69  54 E10       29.86F HX  91
6HR MIN TEMP:  85; 6HR MAX TEMP:  91;


$$
MOZ072>076-082>087-097>100-106>115-160100-
...SOUTH CENTRAL AND SOUTHEAST MISSOURI...

CITY           SKY/WX    TMP DP  RH WIND       PRES   REMARKS
CAPE GIRARDEAU MOCLDY    80  73  79 SW7       29.88R
6HR MIN TEMP:  80; 6HR MAX TEMP:  85;

POPLAR BLUFF   PTCLDY    80  74  81 CALM      29.88R
6HR MIN TEMP:  77; 6HR MAX TEMP:  83; 6HR PCP:  0.01;

WEST PLAINS    MOSUNNY   82  72  71 S8        29.91R
6HR MIN TEMP:  80; 6HR MAX TEMP:  85; 6HR PCP:  0.01;


$$



USA.gov is the U.S. government's official web portal to all federal, state and local government web resources and services.